Location: Kerguer�zec
(48.4509°N, 4.7600°W)
Time: 01:17:47
(UTC+00:00)

ISS - Pass Details

Date: 06 March 2021
Orbit: 418 x 422 km, 51.6° (Epoch: 10 April)

Event Time Altitude Azimuth Distance (km) Brightness Sun altitude
Exits shadow 04:40:39 47° 23° (NNE) 565 -2.9 -22.1°
Drops below altitude 10° 04:43:40 10° 83° (E) 1,500 0.2 -21.7°
Sets 04:45:49 0° 89° (E) 2,363 1.4 -21.3°
